This is the latest recevied weather packets stored in our database for station/object 9W2IJB-3. If no packets are shown the sender has not sent any weather packets the latest 10 day(s).
| Time | Temp. | Humidity | Pressure | Rain* | Wind** | Luminosity | Snow |
|---|---|---|---|---|---|---|---|
| 1777725483 | 26.11° C | 75% | 1020.4 hPa | - | - | - | - |
| 1777724283 | 26.11° C | 75% | 1020.1 hPa | - | - | - | - |
| 1777723083 | 26.11° C | 75% | 1019.8 hPa | - | - | - | - |
| 1777721883 | 26.11° C | 74% | 1019.4 hPa | - | - | - | - |
| 1777720683 | 26.11° C | 74% | 1019.2 hPa | - | - | - | - |
| 1777719483 | 26.67° C | 73% | 1019.2 hPa | - | - | - | - |
| 1777718283 | 26.67° C | 75% | 1018.8 hPa | - | - | - | - |
| 1777717083 | 26.67° C | 75% | 1018.6 hPa | - | - | - | - |
| 1777715917 | 26.67° C | 75% | 1018.3 hPa | - | - | - | - |
| 1777715883 | 26.67° C | 75% | 1018.3 hPa | - | - | - | - |
| 1777714683 | 26.67° C | 75% | 1018.7 hPa | - | - | - | - |
| 1777713483 | 26.67° C | 74% | 1018.5 hPa | - | - | - | - |
| 1777712283 | 26.67° C | 74% | 1018.8 hPa | - | - | - | - |
| 1777711083 | 26.11° C | 74% | 1018.9 hPa | - | - | - | - |
| 1777709883 | 26.67° C | 73% | 1019.2 hPa | - | - | - | - |
| 1777708683 | 26.67° C | 74% | 1018.9 hPa | - | - | - | - |
| 1777707483 | 26.67° C | 75% | 1019.3 hPa | - | - | - | - |
| 1777706282 | 26.11° C | 74% | 1019.6 hPa | - | - | - | - |
| 1777705083 | 26.11° C | 74% | 1019.9 hPa | - | - | - | - |
| 1777703883 | 26.67° C | 73% | 1019.8 hPa | - | - | - | - |
| 1777702684 | 27.22° C | 72% | 1020.5 hPa | - | - | - | - |
| 1777701482 | 28.33° C | 71% | 1020.8 hPa | - | - | - | - |
| 1777700282 | 28.89° C | 69% | 1020.9 hPa | - | - | - | - |
| 1777697883 | 29.44° C | 68% | 1021.6 hPa | - | - | - | - |
| 1777696683 | 29.44° C | 67% | 1022 hPa | - | - | - | - |
* Rain since midnight (hover to see other rain measurements)
** Current wind speed in m/s (hover to see current wind gust speed)